[[{"header":{"parameterUnit":"m.s-1","parameterCategory":1,"la1":30.2991,"la2":30.254,"lo1":-89.0895,"lo2":-89.0444,"dy":0.0017,"dx":0.0017,"nx":28,"ny":28,"refTime":"2024-07-04T03:00:00:Z","depth":0,"parameterNumber":2,"parameterNumberName":"U-component_of_WINDS"},"data":[0,0,0,0,0,0,0,0,0,0,0,0,0,0,0,0,0,0,0,0,0,0,0,0,0,0,0,0,0,0,0,0,0,0,0,0,0,0,0,0,0,0,0,0,0,0,0,0,0,0,0,0,0,0,0,0,0,0,2.1622,2.1622,0,2.1606,2.1606,2.1605,2.1529,2.1528,2.1526,2.1524,2.1507,2.1508,2.151,0,0,0,0,0,0,0,0,0,0,0,0,0,2.1585,2.1586,2.1622,2.1622,2.1622,2.1606,2.1606,2.1605,2.153,2.1528,2.1525,2.1523,2.1507,2.1508,2.151,0,0,0,0,0,0,0,0,0,0,0,0,0,2.1588,2.1587,2.1622,2.1582,2.1578,2.1606,2.1606,2.1605,2.153,2.1528,2.1525,2.1522,2.1506,2.1508,2.151,2.1575,0,0,2.1516,2.1516,0,0,0,0,0,0,0,0,2.1588,2.159,2.1588,2.1585,2.1581,2.1567,2.1586,2.1595,2.1531,2.1548,2.1524,2.1521,2.1529,2.1529,2.1532,2.1574,2.1573,2.1516,2.1517,2.1518,2.1518,0,0,0,0,0,0,0,2.1588,2.159,2.1615,2.1588,2.1584,2.1564,2.1562,2.1588,2.1554,2.1547,2.1541,2.154,2.1527,2.153,2.1531,2.1573,2.1516,2.1517,2.1518,2.1519,2.1663,2.1666,0,0,0,0,0,0,2.1594,2.159,2.1616,2.1615,2.1578,2.1567,2.1564,2.1574,2.1554,2.1548,2.1543,2.1537,2.1529,2.1529,2.153,2.1601,2.1518,2.1519,2.152,2.1661,2.1664,2.1667,0,0,0,0,0,0,2.1593,2.1597,2.1617,2.1601,2.1602,2.157,2.1582,2.1575,2.1578,2.155,2.1544,2.1553,2.1526,2.1527,2.1563,2.16,2.152,2.1522,2.1657,2.1662,2.1665,2.1746,0,0,0,0,0,0,2.1592,2.1597,2.1622,2.1602,2.1603,2.1651,2.1584,2.1577,2.1582,2.1574,2.1558,2.1553,2.1524,2.1561,2.1565,2.1601,2.1523,2.1654,2.1659,2.1664,2.174,2.1752,2.1763,0,0,0,0,0,2.1591,2.1646,2.1624,2.1627,2.1634,2.1653,2.1654,2.162,2.1585,2.1609,2.1591,2.1553,2.1596,2.1565,2.1569,2.1606,2.1651,2.1658,2.1664,2.1735,2.175,2.1763,0,0,0,0,0,0,2.1672,2.1643,2.1618,2.1668,2.1664,2.1641,2.167,2.1638,2.1644,2.1636,2.1594,2.1591,2.1632,2.1623,2.159,2.1666,2.1617,2.1624,2.167,2.1684,2.1695,2.1695,2.1525,0,0,0,0,0,2.1695,2.1714,2.1688,2.1734,2.1733,2.1702,2.171,2.1684,2.1678,2.1676,2.166,2.1655,2.1666,2.1675,2.1685,2.1739,2.1733,2.1766,2.1778,2.1787,2.1793,2.1817,2.1831,2.1687,2.1687,2.1687,0,0,2.1744,2.173,2.1745,2.175,2.1744,2.1762,2.1701,2.1725,2.1738,2.1679,2.1711,2.1699,2.1691,2.1735,2.1754,2.1729,2.1832,2.1795,2.1803,2.1804,2.1825,2.1839,2.1851,2.1691,2.169,2.169,0,0,2.1841,2.1835,2.187,2.1865,2.1856,2.1834,2.1843,2.1825,2.1814,2.1846,2.1801,2.1816,2.1838,2.1833,2.1833,2.1927,2.1891,2.1931,2.199,2.2015,2.2026,2.2036,2.2065,2.2077,2.1938,2.1938,2.1938,0,2.1902,2.1929,2.1893,2.1918,2.1921,2.1868,2.1903,2.19,2.1895,2.1897,2.1869,2.1893,2.1885,2.1925,2.1947,2.1951,2.1957,2.1931,2.2027,2.2037,2.2045,2.2073,2.2085,2.1943,2.1942,2.1942,2.1941,0,2.2003,2.2023,2.2053,2.2048,2.2054,2.2084,2.2051,2.2062,2.2036,2.2017,2.2048,2.2035,2.2039,2.2048,2.2023,2.2084,2.2068,2.2035,2.1984,2.2064,2.2089,2.21,2.1949,2.1948,2.1946,2.1945,0,0,2.215,2.2123,2.2134,2.213,2.2115,2.2129,2.2156,2.216,2.2168,2.2166,2.2186,2.2205,2.2173,2.2173,2.2148,2.2169,2.2239,2.2132,2.2131,2.215,2.2301,2.2324,2.2337,2.2217,2.2219,2.222,2.2301,0,2.224,2.2284,2.2251,2.23,2.2316,2.2266,2.2289,2.2282,2.2265,2.2275,2.2256,2.2269,2.2228,2.2227,2.2247,2.2227,2.2269,2.2221,2.2232,2.2233,2.2232,2.2351,2.2376,2.2452,2.2311,2.2313,2.2314,0,2.235,2.2351,2.2402,2.2381,2.2386,2.2408,2.2407,2.2418,2.2408,2.2394,2.2394,2.2361,2.2385,2.2337,2.2367,2.2336,2.2339,2.233,2.2332,2.2329,2.2276,2.2348,2.2476,2.2486,2.233,2.2329,2.2327,0,2.2447,2.2462,2.2493,2.2491,2.2469,2.2484,2.2475,2.2463,2.2466,2.2466,2.2467,2.247,2.2471,2.2474,2.2442,2.2411,2.2475,2.2426,2.2462,2.2462,2.2475,2.2474,2.2602,2.2483,2.2483,2.2483,2.2482,0,2.2549,2.258,2.2535,2.2554,2.2588,2.255,2.2584,2.257,2.2559,2.2573,2.2532,2.2546,2.2505,2.2514,2.249,2.2516,2.2518,2.2506,2.2498,2.2508,2.2509,2.2506,2.2499,2.2486,2.2485,2.2484,2.2484,0,2.2661,2.2633,2.2662,2.2638,2.2633,2.2658,2.2637,2.2653,2.2633,2.2651,2.2653,2.2622,2.263,2.26,2.2604,2.2588,2.2626,2.2611,2.2629,2.2623,2.2659,2.2654,2.2787,2.2801,2.2677,2.2678,2.2679,0,2.2726,2.2749,2.2727,2.2733,2.2726,2.2737,2.274,2.2704,2.2708,2.2697,2.2713,2.2719,2.272,2.2736,2.2713,2.2716,2.2699,2.2745,2.2699,2.2706,2.2695,2.2692,2.2693,2.2754,2.2755,2.2756,2.2758,0,2.2843,2.2827,2.2833,2.2833,2.2837,2.2835,2.2831,2.2838,2.2799,2.2806,2.2814,2.2815,2.2818,2.2823,2.282,2.281,2.2776,2.2773,2.278,2.2788,2.2795,2.2788,2.2651,2.2769,2.2768,2.2767,2.2766,2.2766,2.2931,2.2948,2.2934,2.294,2.2933,2.2929,2.2941,2.2923,2.2929,2.2928,2.2906,2.2918,2.2905,2.2897,2.2891,2.2898,2.2876,2.2889,2.2891,2.2893,2.2898,2.2797,2.2898,2.2898,2.2897,2.2897,2.2897,0,2.3042,2.303,2.3037,2.3031,2.3036,2.3005,2.2998,2.3003,2.3014,2.3005,2.3007,2.3015,2.3019,2.2996,2.2996,2.3006,2.2991,2.3007,2.3004,2.3002,2.2919,2.2911,2.302,2.302,2.302,2.302,2.302,2.302,2.31,2.3125,2.3108,2.3128,2.3116,2.3127,2.3125,2.312,2.3113,2.3123,2.3125,2.3111,2.3095,2.3094,2.3095,2.3088,2.3089,2.311,2.3098,2.302,2.3008,2.2997,2.2988,2.3112,2.3112,2.3179,2.3179,2.318]},{"header":{"parameterUnit":"m.s-1","parameterCategory":1,"la1":30.2991,"la2":30.254,"lo1":-89.0895,"lo2":-89.0444,"dy":0.0017,"dx":0.0017,"nx":28,"ny":28,"refTime":"2024-07-04T03:00:00:Z","depth":0,"parameterNumber":3,"parameterNumberName":"V-component_of_WINDS"},"data":[0,0,0,0,0,0,0,0,0,0,0,0,0,0,0,0,0,0,0,0,0,0,0,0,0,0,0,0,0,0,0,0,0,0,0,0,0,0,0,0,0,0,0,0,0,0,0,0,0,0,0,0,0,0,0,0,0,0,3.2651,3.2652,0,3.2696,3.2697,3.2697,3.2665,3.2664,3.2662,3.2661,3.2704,3.2706,3.2708,0,0,0,0,0,0,0,0,0,0,0,0,0,3.2534,3.2536,3.2651,3.2652,3.2652,3.2696,3.2697,3.2697,3.2665,3.2663,3.2662,3.266,3.2703,3.2706,3.2709,0,0,0,0,0,0,0,0,0,0,0,0,0,3.2582,3.2537,3.2651,3.2642,3.2641,3.2696,3.2697,3.2697,3.2666,3.2663,3.2661,3.2659,3.2702,3.2705,3.2709,3.2775,0,0,3.272,3.2722,0,0,0,0,0,0,0,0,3.2579,3.2586,3.2643,3.2643,3.2642,3.2673,3.2671,3.2723,3.2666,3.2656,3.2661,3.2658,3.2695,3.2699,3.2712,3.2777,3.2778,3.2721,3.2723,3.2725,3.2726,0,0,0,0,0,0,0,3.2576,3.2584,3.2669,3.2643,3.2643,3.2634,3.2638,3.2681,3.2687,3.2657,3.2655,3.2661,3.2694,3.2709,3.2713,3.2779,3.2721,3.2724,3.2726,3.2728,3.2896,3.2899,0,0,0,0,0,0,3.2574,3.2582,3.2667,3.267,3.2605,3.2638,3.2643,3.2665,3.2686,3.2688,3.2662,3.2659,3.2703,3.2709,3.2714,3.279,3.2725,3.2728,3.273,3.2894,3.2897,3.2899,0,0,0,0,0,0,3.2572,3.2582,3.2666,3.2625,3.2635,3.2642,3.2667,3.2667,3.2681,3.2691,3.2691,3.2676,3.2702,3.2709,3.2759,3.2791,3.273,3.2733,3.2891,3.2895,3.2898,3.2944,0,0,0,0,0,0,3.2568,3.2581,3.2607,3.2626,3.2638,3.2712,3.2669,3.267,3.2688,3.2684,3.2703,3.2705,3.2701,3.2754,3.2763,3.2795,3.2736,3.2889,3.2893,3.2897,3.2939,3.2948,3.2956,0,0,0,0,0,3.2564,3.2618,3.2609,3.2619,3.2671,3.2713,3.272,3.2715,3.2691,3.2716,3.2722,3.2704,3.2787,3.2759,3.2769,3.2803,3.2887,3.2892,3.2897,3.2936,3.2947,3.2956,0,0,0,0,0,0,3.2603,3.2621,3.261,3.2673,3.2692,3.2708,3.274,3.2727,3.2753,3.2748,3.274,3.2745,3.2797,3.2805,3.2775,3.2866,3.2832,3.284,3.2859,3.2869,3.2877,3.2873,3.2739,0,0,0,0,0,3.2618,3.2653,3.2667,3.272,3.273,3.2733,3.2752,3.2747,3.2766,3.2773,3.2783,3.2801,3.2831,3.2851,3.2879,3.2941,3.2943,3.2969,3.2977,3.2984,3.299,3.3021,3.3031,3.2916,3.2916,3.2916,0,0,3.2651,3.2665,3.2687,3.2728,3.2742,3.2776,3.274,3.2779,3.2803,3.2779,3.2827,3.2834,3.2854,3.291,3.2935,3.2918,3.3022,3.299,3.2996,3.2998,3.3027,3.3038,3.3048,3.292,3.2919,3.2918,0,0,3.2728,3.2743,3.2788,3.2803,3.2825,3.2827,3.2837,3.2855,3.286,3.2908,3.2889,3.2918,3.297,3.2984,3.2998,3.3079,3.3062,3.3088,3.3131,3.3161,3.317,3.3178,3.3205,3.3214,3.3094,3.3094,3.3094,0,3.2765,3.2817,3.2813,3.2852,3.2869,3.2849,3.2893,3.2908,3.2937,3.2949,3.293,3.2994,3.3006,3.3064,3.3083,3.3096,3.3106,3.3085,3.3169,3.3177,3.3185,3.321,3.322,3.3097,3.3097,3.3097,3.3096,0,3.2861,3.2897,3.2931,3.296,3.2981,3.3023,3.3023,3.3045,3.3037,3.304,3.3088,3.3102,3.3131,3.3145,3.3138,3.3201,3.319,3.3171,3.3136,3.3198,3.3222,3.3232,3.3101,3.31,3.3099,3.3099,0,0,3.2963,3.2989,3.3001,3.3013,3.3035,3.3063,3.3102,3.3132,3.315,3.3171,3.3202,3.3246,3.3228,3.3244,3.3238,3.3265,3.3325,3.3242,3.3242,3.3255,3.3393,3.3406,3.3418,3.3315,3.3317,3.3318,3.339,0,3.3039,3.3109,3.3105,3.3171,3.3203,3.3184,3.3218,3.3234,3.3238,3.3264,3.3268,3.3298,3.3273,3.3282,3.3308,3.3313,3.3352,3.3307,3.3342,3.3344,3.3337,3.343,3.3445,3.3512,3.34,3.3401,3.3403,0,3.3138,3.3162,3.323,3.3246,3.3259,3.3291,3.3316,3.3342,3.336,3.336,3.3378,3.3367,3.3405,3.3371,3.3422,3.3392,3.3406,3.341,3.3413,3.3414,3.3376,3.3432,3.3534,3.3543,3.3417,3.3416,3.3415,0,3.3202,3.3252,3.3299,3.3311,3.3331,3.3352,3.3362,3.3377,3.3394,3.3417,3.3427,3.3454,3.3467,3.3487,3.3483,3.3459,3.3535,3.3501,3.3534,3.3535,3.355,3.3549,3.3653,3.3562,3.3562,3.3562,3.3562,0,3.3287,3.3329,3.3328,3.3357,3.3403,3.3397,3.3442,3.3449,3.3463,3.3491,3.3476,3.3502,3.3497,3.3523,3.352,3.3561,3.3568,3.3568,3.3567,3.3569,3.3568,3.3577,3.3571,3.3565,3.3564,3.3564,3.3563,0,3.3366,3.3368,3.3417,3.3432,3.3437,3.347,3.3482,3.3508,3.351,3.3546,3.3554,3.3557,3.3586,3.3585,3.3619,3.3616,3.3667,3.3661,3.3661,3.3659,3.3692,3.3689,3.3804,3.3818,3.372,3.3721,3.3722,0,3.3419,3.3451,3.3469,3.3487,3.3498,3.3528,3.3545,3.354,3.3559,3.358,3.3603,3.3632,3.3654,3.3702,3.3706,3.3731,3.3724,3.3763,3.3728,3.3728,3.3723,3.372,3.3722,3.377,3.3771,3.3772,3.3772,0,3.3512,3.3511,3.3537,3.3564,3.3585,3.3605,3.3624,3.3639,3.3636,3.3658,3.3688,3.3705,3.3739,3.3767,3.379,3.3798,3.3784,3.3784,3.3792,3.3794,3.3792,3.3791,3.3678,3.3781,3.378,3.3779,3.3779,3.3778,3.3579,3.3605,3.3622,3.3651,3.3664,3.3682,3.3706,3.3712,3.3737,3.3765,3.376,3.3794,3.3808,3.3839,3.3849,3.3874,3.386,3.3873,3.3876,3.3879,3.3881,3.3789,3.3878,3.3878,3.3878,3.3878,3.3877,0,3.3669,3.3678,3.3705,3.3732,3.3754,3.374,3.376,3.3779,3.3809,3.3824,3.3846,3.388,3.3906,3.3913,3.3938,3.3956,3.395,3.3963,3.396,3.3962,3.3894,3.3883,3.3967,3.3967,3.3967,3.3967,3.3967,3.3967,3.3718,3.3762,3.3763,3.3812,3.3821,3.3854,3.3866,3.3881,3.3893,3.3932,3.3954,3.3958,3.3969,3.3994,3.4017,3.4018,3.4027,3.4042,3.404,3.3976,3.3967,3.3958,3.3948,3.4044,3.4044,3.4106,3.4106,3.4107]}]]